GW1546 Weather Reports


Display with metric or nautical units.
time (UTC)temp
F
wind
direction
speed
MPH
gust
MPH
rain 1hr
in
rain 24hr
in
rain mn
in
humidity
%
barometer
mb
20260904225432 78 146 0.0 0.0 0.00 0.00 0.09 98 987.8
20260904225016 79 162 0.0 0.0 0.00 0.00 0.09 98 987.4
20260904224529 79 150 0.0 0.0 0.00 0.00 0.09 98 987.4
20260904223153 79 170 0.0 0.0 0.00 0.00 0.09 98 987.8
20260904222736 79 151 0.0 0.0 0.00 0.00 0.09 98 987.4
20260904222319 79 149 0.0 0.0 0.00 0.00 0.09 98 987.8
20260904221902 79 163 0.0 0.0 0.00 0.00 0.09 98 987.8
20260904220943 79 164 0.0 0.0 0.00 0.00 0.09 97 987.8
20260904220523 80 175 0.0 0.0 0.00 0.00 0.09 97 987.8
20260904215646 80 161 0.0 0.0 0.00 0.00 0.09 97 988.1
20260904215229 80 158 0.0 0.0 0.00 0.00 0.09 97 988.1
20260904214755 80 144 0.0 0.0 0.00 0.00 0.09 97 988.4
20260904214339 80 144 0.0 0.0 0.00 0.00 0.09 96 988.8
20260904213902 80 144 0.0 0.0 0.00 0.00 0.09 96 988.1
20260904213446 80 151 0.0 0.0 0.00 0.00 0.09 96 988.1
20260904213013 80 151 0.0 0.0 0.00 0.00 0.09 95 987.8
20260904212556 80 152 0.0 0.0 0.00 0.00 0.09 95 987.8
20260904212140 81 153 0.0 0.0 0.00 0.00 0.09 95 987.8
20260904211708 81 153 0.0 0.0 0.00 0.00 0.09 95 987.4
20260904211236 81 153 0.0 0.0 0.00 0.00 0.09 94 987.8
20260904210331 81 154 0.0 0.0 0.00 0.00 0.09 95 987.4
20260904205914 80 164 0.0 0.0 0.00 0.00 0.09 95 987.4
20260904204554 79 150 0.0 0.0 0.00 0.00 0.09 97 987.8
20260904204137 80 151 0.0 0.0 0.00 0.00 0.09 97 987.4
20260904203650 80 151 0.0 0.0 0.00 0.00 0.09 97 987.4
20260904202801 80 155 0.0 0.0 0.00 0.00 0.09 95 987.4
20260904202346 80 155 0.0 0.0 0.00 0.00 0.09 94 987.8
20260904201928 81 154 0.0 0.0 0.00 0.00 0.09 95 987.4
20260904201512 81 160 0.0 0.0 0.00 0.00 0.09 95 987.8
20260904200606 81 174 0.0 0.0 0.00 0.00 0.09 95 987.8
20260904195715 80 169 0.0 0.0 0.00 0.00 0.09 96 987.8
20260904195241 80 158 0.0 0.0 0.00 0.00 0.09 96 987.8
20260904194810 81 165 0.0 0.0 0.00 0.00 0.09 96 987.8
20260904194337 81 160 0.0 0.0 0.00 0.00 0.09 97 988.1
20260904193917 80 174 0.0 0.0 0.00 0.00 0.09 99 988.1
20260904192958 78 181 0.0 0.0 0.00 0.00 0.09 99 987.8
20260904192545 79 162 0.0 0.0 0.00 0.00 0.09 99 988.1
20260904192114 79 162 0.0 0.0 0.00 0.00 0.09 99 987.8
20260904191643 79 152 0.0 0.0 0.00 0.00 0.09 98 988.1
20260904191208 81 161 0.0 0.0 0.00 0.00 0.09 97 988.4
20260904190752 81 159 0.0 0.0 0.00 0.00 0.05 96 988.4
20260904190323 81 139 0.0 0.0 0.00 0.00 0.01 95 988.4
20260904185852 82 136 0.0 0.0 0.00 0.00 0.01 95 988.1
20260904185436 82 140 0.0 0.0 0.00 0.00 0.01 94 988.1
20260904184531 83 146 0.0 0.0 0.00 0.00 0.01 94 988.1
20260904184059 83 151 0.0 0.0 0.00 0.00 0.01 94 987.8
20260904183642 83 165 0.0 0.0 0.00 0.00 0.01 93 988.1
20260904183225 83 174 0.0 0.0 0.00 0.00 0.01 93 988.1
20260904182809 83 186 0.0 0.0 0.00 0.00 0.01 94 988.1
20260904182353 82 142 0.0 0.0 0.00 0.00 0.01 95 988.1
20260904181937 82 143 0.0 0.0 0.00 0.00 0.01 95 988.1
20260904181505 82 155 0.0 0.0 0.00 0.00 0.01 94 988.4
20260904181048 84 170 0.0 0.0 0.00 0.00 0.01 91 988.1
20260904180616 86 161 0.0 0.0 0.00 0.00 0.01 88 987.8
20260904180128 90 160 0.0 0.0 0.00 0.00 0.00 81 987.8
20260904175656 91 159 0.0 0.0 0.00 0.00 0.00 78 987.8
20260904175224 93 160 0.0 0.0 0.00 0.00 0.00 73 987.8
20260904174806 94 161 0.0 0.0 0.00 0.00 0.00 67 988.1
20260904173411 90 150 0.0 0.0 0.00 0.00 0.00 76 988.4
20260904172505 91 154 0.0 0.0 0.00 0.00 0.00 72 988.1
20260904172047 92 165 0.0 0.0 0.00 0.00 0.00 71 988.4
20260904171629 93 171 0.0 0.0 0.00 0.00 0.00 62 988.4
20260904170712 95 154 0.0 0.0 0.00 0.00 0.00 67 988.4
20260904170253 94 159 0.0 0.0 0.00 0.00 0.00 63 988.4
20260904165836 95 152 0.0 0.0 0.00 0.00 0.00 62 988.4
20260904164949 94 149 0.0 0.0 0.00 0.00 0.00 66 988.4
20260904164532 94 149 0.0 0.0 0.00 0.00 0.00 65 988.4
20260904164115 94 150 0.0 0.0 0.00 0.00 0.00 64 988.8
20260904163644 95 159 0.0 0.0 0.00 0.00 0.00 62 988.8
20260904163227 94 160 0.0 0.0 0.00 0.00 0.00 65 988.4
20260904162809 94 153 0.0 0.0 0.00 0.00 0.00 67 988.8
20260904162337 94 154 0.0 0.0 0.00 0.00 0.00 72 988.8
20260904161921 93 152 0.0 0.0 0.00 0.00 0.00 69 988.8
20260904161033 92 151 0.0 0.0 0.00 0.00 0.00 74 988.8
20260904160617 91 152 0.0 0.0 0.00 0.00 0.00 73 989.1
20260904160202 90 153 0.0 0.0 0.00 0.00 0.00 73 989.1
20260904155746 90 152 0.0 0.0 0.00 0.00 0.00 75 988.8
20260904155328 90 151 0.0 0.0 0.00 0.00 0.00 75 989.1
20260904154911 90 151 0.0 0.0 0.00 0.00 0.00 75 989.1
20260904154454 91 151 0.0 0.0 0.00 0.00 0.00 73 989.1
20260904154023 94 150 0.0 0.0 0.00 0.00 0.00 69 989.1
20260904153607 94 150 0.0 0.0 0.00 0.00 0.00 67 989.1
20260904153149 93 149 0.0 0.0 0.00 0.00 0.00 67 989.5
20260904152247 90 150 0.0 0.0 0.00 0.00 0.00 78 989.5
20260904151827 90 150 0.0 0.0 0.00 0.00 0.00 75 989.1
20260904151409 90 149 0.0 0.0 0.00 0.00 0.00 75 989.5
20260904150951 91 149 0.0 0.0 0.00 0.00 0.00 73 989.5
20260904150536 90 149 0.0 0.0 0.00 0.00 0.00 73 989.1
20260904150120 90 148 0.0 0.0 0.00 0.00 0.00 76 989.5
20260904145230 89 149 0.0 0.0 0.00 0.00 0.00 77 989.5
20260904144758 87 148 0.0 0.0 0.00 0.00 0.00 80 989.5
20260904144328 86 148 0.0 0.0 0.00 0.00 0.00 80 989.5
20260904143854 86 146 0.0 0.0 0.00 0.00 0.00 81 989.5
20260904143437 84 146 0.0 0.0 0.00 0.00 0.00 83 989.5
20260904143006 83 145 0.0 0.0 0.00 0.00 0.00 86 989.5
20260904142549 82 142 0.0 0.0 0.00 0.00 0.00 86 989.5
20260904141703 80 144 0.0 0.0 0.00 0.00 0.00 90 989.5
20260904141247 79 150 0.0 0.0 0.00 0.00 0.00 91 989.5
20260904140832 79 138 0.0 0.0 0.00 0.00 0.00 92 989.5
20260904140416 79 153 0.0 0.0 0.00 0.00 0.00 92 989.5
20260904135958 78 152 0.0 0.0 0.00 0.00 0.00 93 989.5
20260904135540 78 142 0.0 0.0 0.00 0.00 0.00 93 989.5
20260904135123 78 154 0.0 0.0 0.00 0.00 0.00 93 989.5
20260904134706 77 151 0.0 0.0 0.00 0.00 0.00 94 989.5
20260904134235 77 151 0.0 0.0 0.00 0.00 0.00 95 989.8
20260904133802 76 137 0.0 0.0 0.00 0.00 0.00 95 989.8
20260904133346 76 142 0.0 0.0 0.00 0.00 0.00 95 989.5
20260904132928 76 154 0.0 0.0 0.00 0.00 0.00 96 989.5
20260904132042 75 140 0.0 0.0 0.00 0.00 0.00 96 989.5
20260904131611 75 150 0.0 0.0 0.00 0.00 0.00 97 989.8
20260904131155 75 149 0.0 0.0 0.00 0.00 0.00 97 989.8
20260904130307 75 150 0.0 0.0 0.00 0.00 0.00 97 989.8
20260904125419 74 154 0.0 0.0 0.00 0.00 0.00 99 989.8
20260904125004 74 148 0.0 0.0 0.00 0.00 0.00 99 990.1
20260904123217 73 150 0.0 0.0 0.00 0.00 0.00 99 989.8
20260904122801 73 156 0.0 0.0 0.00 0.00 0.00 99 989.8
20260904121902 72 162 0.0 0.0 0.00 0.00 0.00 99 989.8
20260904121448 72 159 0.0 0.0 0.00 0.00 0.00 99 989.8
20260904121034 72 157 0.0 0.0 0.00 0.00 0.00 99 989.8
20260904120618 72 158 0.0 0.0 0.00 0.00 0.00 99 989.8
20260904120201 72 155 0.0 0.0 0.00 0.00 0.00 99 989.8
20260904115745 72 160 0.0 0.0 0.00 0.00 0.00 99 989.8
20260904115331 72 157 0.0 0.0 0.00 0.00 0.00 99 989.8
20260904114917 72 158 0.0 0.0 0.00 0.00 0.00 99 989.8
20260904114502 71 162 0.0 0.0 0.00 0.00 0.00 99 989.8
20260904113616 71 163 0.0 0.0 0.00 0.00 0.00 99 989.8
20260904113201 71 165 0.0 0.0 0.00 0.00 0.00 99 989.8
20260904112745 71 147 0.0 0.0 0.00 0.00 0.00 99 989.8
20260904112329 71 160 0.0 0.0 0.00 0.00 0.00 99 989.8
20260904111913 71 155 0.0 0.0 0.00 0.00 0.00 99 989.8
20260904111457 71 161 0.0 0.0 0.00 0.00 0.00 99 989.5
20260904111042 71 164 0.0 0.0 0.00 0.00 0.00 99 989.8
20260904110626 71 163 0.0 0.0 0.00 0.00 0.00 99 989.8
20260904110211 71 162 0.0 0.0 0.00 0.00 0.00 99 989.5
20260904105308 71 164 0.0 0.0 0.00 0.00 0.00 99 989.5
20260904104421 71 161 0.0 0.0 0.00 0.00 0.00 99 989.5
20260904103950 71 156 0.0 0.0 0.00 0.00 0.00 99 989.5
20260904103521 71 158 0.0 0.0 0.00 0.00 0.00 99 989.5
20260904103105 71 162 0.0 0.0 0.00 0.00 0.00 99 989.5
20260904102634 70 163 0.0 0.0 0.00 0.00 0.00 99 989.5
20260904102220 71 163 0.0 0.0 0.00 0.00 0.00 99 989.1
20260904101802 71 164 0.0 0.0 0.00 0.00 0.00 99 989.5
20260904101347 71 164 0.0 0.0 0.00 0.00 0.00 99 989.5
20260904100932 71 165 0.0 0.0 0.00 0.00 0.00 99 989.5
20260904100517 71 165 0.0 0.0 0.00 0.00 0.00 99 989.1
20260904095617 71 159 0.0 0.0 0.00 0.00 0.00 99 989.1
20260904095159 71 156 0.0 0.0 0.00 0.00 0.00 99 989.5
20260904094744 71 152 0.0 0.0 0.00 0.00 0.00 99 989.1
20260904093843 71 150 0.0 0.0 0.00 0.00 0.00 99 989.1
20260904092952 71 150 0.0 0.0 0.00 0.00 0.00 99 989.1
20260904092036 71 154 0.0 0.0 0.00 0.00 0.00 99 988.8
20260904091120 72 159 0.0 0.0 0.00 0.00 0.00 99 989.1
20260904090704 72 157 0.0 0.0 0.00 0.00 0.00 99 989.1
20260904090250 71 159 0.0 0.0 0.00 0.00 0.00 99 988.8
20260904085834 72 157 0.0 0.0 0.00 0.00 0.00 99 988.8
20260904085419 72 156 0.0 0.0 0.00 0.00 0.00 99 988.8
20260904085003 71 155 0.0 0.0 0.00 0.00 0.00 99 989.1
20260904084533 72 156 0.0 0.0 0.00 0.00 0.00 99 988.8
20260904084118 72 157 0.0 0.0 0.00 0.00 0.00 99 988.8
20260904083648 72 146 0.0 0.0 0.00 0.00 0.00 99 988.8
20260904083234 72 144 0.0 0.0 0.00 0.00 0.00 99 989.1
20260904082816 72 150 0.0 0.0 0.00 0.00 0.00 99 988.8
20260904082347 72 144 0.0 0.0 0.00 0.00 0.00 99 988.4
20260904081930 72 151 0.0 0.0 0.00 0.00 0.00 99 988.8
20260904081502 72 148 0.0 0.0 0.00 0.00 0.00 99 988.4
20260904081048 72 153 0.0 0.0 0.00 0.00 0.00 99 988.4
20260904080617 72 145 0.0 0.0 0.00 0.00 0.00 99 988.8
20260904075730 72 163 0.0 0.0 0.00 0.00 0.00 99 988.4
20260904075314 72 169 0.0 0.0 0.00 0.00 0.00 99 988.4
20260904074858 72 166 0.0 0.0 0.00 0.00 0.00 99 988.4
20260904074443 72 166 0.0 0.0 0.00 0.00 0.00 99 988.4
20260904074012 72 163 0.0 0.0 0.00 0.00 0.00 99 988.4
20260904073539 72 165 0.0 0.0 0.00 0.00 0.00 99 988.4
20260904073108 72 164 0.0 0.0 0.00 0.00 0.00 99 988.4
20260904072654 72 166 0.0 0.0 0.00 0.00 0.00 99 988.4
20260904072238 72 167 0.0 0.0 0.00 0.00 0.00 99 988.4
20260904071824 72 166 0.0 0.0 0.00 0.00 0.00 99 988.4
20260904071406 72 165 0.0 0.0 0.00 0.00 0.00 99 988.4
20260904070951 72 166 0.0 0.0 0.00 0.00 0.00 99 988.4
20260904070535 72 167 0.0 0.0 0.00 0.00 0.00 99 988.8
20260904070120 72 166 0.0 0.0 0.00 0.00 0.00 99 988.8
20260904065233 72 169 1.0 2.0 0.00 0.00 0.00 99 989.1
20260904064815 72 167 1.0 2.0 0.00 0.00 0.00 99 988.8
20260904064358 72 166 1.0 2.0 0.00 0.00 0.00 99 988.8
20260904063941 72 167 1.0 2.0 0.00 0.00 0.00 99 988.4
20260904063525 72 167 1.0 2.0 0.00 0.00 0.00 99 988.8
20260904063053 72 166 1.0 2.0 0.00 0.00 0.00 99 988.8
20260904062622 72 169 2.0 3.0 0.00 0.00 0.00 99 989.1
20260904062207 72 169 2.0 2.0 0.00 0.00 0.00 99 989.1
20260904061751 72 169 1.0 2.0 0.00 0.00 0.00 99 989.1
20260904061336 72 168 0.0 2.0 0.00 0.00 0.00 99 989.5
20260904060450 72 170 2.0 2.0 0.00 0.00 0.00 99 989.1
20260904060019 72 169 1.0 2.0 0.00 0.00 0.00 99 989.1
20260904055603 72 170 2.0 2.0 0.00 0.00 0.00 99 989.1
20260904054717 73 169 1.0 2.0 0.00 0.00 0.00 99 989.1
20260904053815 73 168 0.0 0.0 0.00 0.00 0.00 99 989.5
20260904053359 73 169 0.0 0.0 0.00 0.00 0.00 99 989.5
20260904052927 73 169 0.0 0.0 0.00 0.00 0.00 99 989.1
20260904052418 73 168 0.0 0.0 0.00 0.00 0.00 99 989.5
20260904051842 73 167 0.0 0.0 0.00 0.00 0.00 99 989.5
20260904051213 74 170 0.0 2.0 0.00 0.00 0.00 99 989.5
20260904050645 74 171 1.0 2.0 0.00 0.00 0.00 99 989.1
20260904050034 73 169 1.0 2.0 0.00 0.00 0.00 99 989.1
20260904044826 73 172 2.0 3.0 0.00 0.00 0.00 99 989.5
20260904044248 73 173 0.0 0.0 0.00 0.00 0.00 99 989.5
20260904043619 74 170 1.0 2.0 0.00 0.00 0.00 99 989.5
20260904043026 73 171 1.0 2.0 0.00 0.00 0.00 99 989.5
20260904041823 74 171 1.0 2.0 0.00 0.00 0.00 99 989.5
20260904041219 74 172 2.0 2.0 0.00 0.00 0.00 99 989.5
20260904040620 74 171 1.0 2.0 0.00 0.00 0.00 99 989.5
20260904040025 74 171 0.0 0.0 0.00 0.00 0.00 99 989.5
20260904034217 74 172 0.0 0.0 0.00 0.00 0.00 99 989.5
20260904033614 74 173 0.0 0.0 0.00 0.00 0.00 99 989.5
20260904032426 74 173 0.0 0.0 0.00 0.00 0.00 99 989.8
20260904031807 74 180 2.0 3.0 0.00 0.00 0.00 99 989.5
20260904031220 74 178 0.0 1.0 0.00 0.00 0.00 99 989.5
20260904030630 75 185 2.0 3.0 0.00 0.00 0.00 99 989.5
20260904030036 75 186 2.0 3.0 0.00 0.00 0.00 99 989.5
20260904025411 75 188 1.0 2.0 0.00 0.00 0.00 99 989.5
20260904024825 75 197 1.0 2.0 0.00 0.00 0.00 99 989.5
20260904024224 75 188 2.0 2.0 0.00 0.00 0.00 99 989.8
20260904023042 75 170 1.0 1.0 0.00 0.00 0.00 99 989.8
20260904022433 75 173 0.0 2.0 0.00 0.00 0.00 99 989.8
20260904021206 75 168 0.0 2.0 0.00 0.00 0.00 99 989.8
20260904020642 75 172 1.0 1.0 0.00 0.00 0.00 99 989.1
20260904020022 75 175 2.0 2.0 0.00 0.00 0.00 99 989.5
20260904015423 76 169 1.0 2.0 0.00 0.00 0.00 99 989.5
20260904014240 76 173 0.0 0.0 0.00 0.00 0.00 99 989.5
20260904013613 76 175 1.0 1.0 0.00 0.00 0.00 99 989.5
20260904013043 76 176 0.0 1.0 0.00 0.00 0.00 99 989.5
20260904012419 76 176 0.0 1.0 0.00 0.00 0.00 99 989.1
20260904011825 76 174 0.0 1.0 0.00 0.00 0.00 99 989.1
20260904010009 76 180 0.0 1.0 0.00 0.00 0.00 99 989.1
20260904005444 77 184 0.0 1.0 0.00 0.00 0.00 99 989.1
20260904004806 77 194 0.0 1.0 0.00 0.00 0.00 99 989.1
20260904004242 77 193 0.0 1.0 0.00 0.00 0.00 99 989.1
20260904002445 78 220 0.0 1.0 0.00 0.00 0.00 98 988.4
20260904001848 78 221 0.0 1.0 0.00 0.00 0.00 98 988.4
20260904001236 78 224 1.0 1.0 0.00 0.00 0.00 98 988.4
20260904000641 78 244 0.0 1.0 0.00 0.00 0.00 97 988.4
20260904000015 78 199 0.0 2.0 0.00 0.00 0.00 97 988.4
20260903235440 79 178 1.0 2.0 0.00 0.00 0.00 96 988.1
20260903234828 79 176 1.0 1.0 0.00 0.00 0.00 96 988.4
20260903234218 79 245 0.0 0.0 0.00 0.00 0.00 95 988.1
20260903233618 80 251 0.0 1.0 0.00 0.00 0.00 95 988.4
20260903232431 80 183 1.0 1.0 0.00 0.00 0.00 94 987.8
20260903231236 81 154 1.0 2.0 0.00 0.00 0.00 92 987.8
20260903230034 82 217 0.0 1.0 0.00 0.00 0.00 91 987.8